Poplar Bluff, MO

2:36 PM CDT on April 27, 2017 (GMT -0500)
Poplar Bluff Municipal

Weather History for KPOF - May, 2011

Change the Weather History Date:

Sunday, May 1, 2011

  Actual Average Record
Temperature  
Mean Temperature 57 °F -  
Max Temperature 66 °F 76 °F 92 °F (1959)
Min Temperature 48 °F 53 °F 34 °F (1963)
Degree Days  
Heating Degree Days 8    
Growing Degree Days 7 (Base 50)    
Moisture  
Dew Point 55 °F    
Average Humidity 92    
Maximum Humidity 100    
Minimum Humidity 75    
Precipitation  
Precipitation 2.19 in - - ()
Sea Level Pressure  
Sea Level Pressure 29.96 in    
Wind  
Wind Speed 8 mph (NNW)    
Max Wind Speed 21 mph    
Max Gust Speed 30 mph    
Visibility 5 miles    
Events Fog , Rain , Thunderstorm    
Averages and records for this station are not official NWS values.
T = Trace of Precipitation, MM = Missing Value Source: NWS Daily Summary

Daily Weather History Graph

Daily Weather History Graph

Search for Another Location

Airport or City:

Trip Planner

Search our weather history database for the weather conditions in past years. The results will help you decide how hot, cold, wet, or windy it might be!

Date:

Astronomy

May. 01, 2011 Rise Set
Actual Time 6:07 AM CDT 7:49 PM CDT
Civil Twilight 5:39 AM CDT 8:17 PM CDT
Nautical Twilight 5:06 AM CDT 8:51 PM CDT
Astronomical Twilight 4:30 AM CDT 9:26 PM CDT
Moon 4:54 AM CDT (5/1) 6:39 PM CDT (5/1)
Length of Visible Light 14h 37m
Length of Day
13h 42m
Waning Crescent, 2% of the Moon is Illuminated
May 1
Waning Crescent
May 3
New
May 10
First Quarter
May 17
Full
May 24
Last Quarter

Hourly Weather History & Observations

Time (CDT) Temp. Dew Point Humidity Pressure Visibility Wind Dir Wind Speed Gust Speed Precip Events Conditions
12:24 AM 66.2 °F 64.4 °F 94% 29.83 in 10.0 mi South 5.8 mph - 0.10 in Rain , Thunderstorm Light Rain
12:47 AM 66.2 °F 64.4 °F 94% 29.84 in 10.0 mi SSW 6.9 mph - 0.10 in Rain Light Rain
12:53 AM 64.9 °F 64.0 °F 97% 29.84 in 6.0 mi SSW 6.9 mph - 0.11 in Rain Light Rain
1:04 AM 64.4 °F 64.4 °F 100% 29.84 in 5.0 mi SW 4.6 mph - 0.01 in Rain , Thunderstorm Light Rain
1:21 AM 66.2 °F 64.4 °F 94% 29.85 in 7.0 mi SW 5.8 mph - 0.02 in Rain Light Rain
1:36 AM 66.2 °F 64.4 °F 94% 29.85 in 5.0 mi South 4.6 mph - 0.03 in Rain Light Rain
1:45 AM 66.2 °F 64.4 °F 94% 29.86 in 8.0 mi SSW 4.6 mph - N/A Rain Light Rain
1:53 AM 66.0 °F 64.9 °F 96% 29.86 in 8.0 mi SSW 4.6 mph - 0.03 in   Overcast
2:42 AM 66.2 °F 64.4 °F 94% 29.85 in 5.0 mi Calm Calm - N/A   Overcast
2:53 AM 64.9 °F 64.9 °F 100% 29.85 in 4.0 mi Calm Calm - N/A   Overcast
3:11 AM 64.4 °F 64.4 °F 100% 29.86 in 1.8 mi SSW 3.5 mph - N/A   Overcast
3:20 AM 64.4 °F 64.4 °F 100% 29.87 in 0.2 mi SW 3.5 mph - N/A Fog Fog
3:53 AM 64.9 °F 64.9 °F 100% 29.85 in 0.2 mi NW 3.5 mph - N/A Fog Fog
4:13 AM 64.4 °F 64.4 °F 100% 29.88 in 0.5 mi WSW 3.5 mph - N/A Fog Fog
4:53 AM 64.9 °F 64.0 °F 97% 29.87 in 0.2 mi Calm Calm - N/A Fog Fog
5:32 AM 64.4 °F 62.6 °F 94% 29.88 in 0.2 mi Calm Calm - N/A Fog Fog
5:53 AM 64.0 °F 63.0 °F 96% 29.89 in 0.2 mi Calm Calm - N/A Fog Fog
6:20 AM 62.6 °F 62.6 °F 100% 29.90 in 0.5 mi Calm Calm - N/A Fog Fog
6:25 AM 62.6 °F 62.6 °F 100% 29.91 in 0.2 mi Calm Calm - N/A Fog Fog
6:32 AM 62.6 °F 62.6 °F 100% 29.92 in 0.2 mi Calm Calm - N/A Fog Fog
6:43 AM 62.6 °F 62.6 °F 100% 29.93 in 0.8 mi Calm Calm - N/A   Scattered Clouds
6:53 AM 62.1 °F 62.1 °F 100% 29.93 in 1.2 mi Calm Calm - N/A   Mostly Cloudy
7:02 AM 62.6 °F 62.6 °F 100% 29.94 in 3.0 mi Calm Calm - N/A   Mostly Cloudy
7:53 AM 64.0 °F 63.0 °F 96% 29.94 in 10.0 mi North 3.5 mph - N/A   Overcast
8:53 AM 64.9 °F 61.0 °F 87% 29.96 in 10.0 mi North 3.5 mph - N/A   Overcast
9:53 AM 64.9 °F 57.9 °F 78% 29.98 in 10.0 mi North 8.1 mph - N/A   Overcast
10:53 AM 64.9 °F 57.0 °F 75% 29.98 in 10.0 mi NNE 6.9 mph - N/A   Overcast
11:53 AM 64.0 °F 57.9 °F 80% 29.98 in 6.0 mi Calm Calm - 0.00 in Rain Rain
12:10 PM 62.6 °F 57.2 °F 82% 29.99 in 2.5 mi Calm Calm - 0.07 in Rain Rain
12:23 PM 62.6 °F 60.8 °F 94% 29.98 in 2.5 mi North 5.8 mph - 0.11 in Rain , Thunderstorm Rain
12:32 PM 62.6 °F 60.8 °F 94% 29.99 in 1.8 mi North 3.5 mph - 0.16 in Rain Heavy Rain
12:45 PM 62.6 °F 59.0 °F 88% 29.96 in 3.0 mi NNE 8.1 mph - 0.22 in Rain Rain
12:53 PM 62.1 °F 59.0 °F 90% 29.96 in 4.0 mi North 9.2 mph - 0.23 in Rain Light Rain
1:51 PM 59.0 °F 55.4 °F 88% 30.00 in 1.8 mi NNW 18.4 mph 24.2 mph 0.18 in Rain Heavy Rain
1:53 PM 57.9 °F 55.0 °F 90% 30.01 in 1.8 mi NW 17.3 mph 26.5 mph 0.20 in Rain Heavy Rain
2:02 PM 57.2 °F 53.6 °F 88% 30.02 in 2.5 mi NW 18.4 mph 27.6 mph 0.04 in Rain Heavy Rain
2:15 PM 55.4 °F 53.6 °F 94% 30.05 in 1.8 mi NW 19.6 mph 26.5 mph 0.14 in Rain Heavy Rain
2:22 PM 55.4 °F 53.6 °F 94% 30.06 in 1.8 mi NW 16.1 mph 23.0 mph 0.20 in Rain Heavy Rain
2:36 PM 55.4 °F 53.6 °F 94% 30.07 in 2.0 mi NNW 13.8 mph 19.6 mph 0.30 in Rain Heavy Rain
2:53 PM 54.0 °F 51.1 °F 90% 29.95 in 2.0 mi NE 18.4 mph 28.8 mph 0.40 in Rain Heavy Rain
3:00 PM 53.6 °F 51.8 °F 94% 29.99 in 2.5 mi North 16.1 mph 28.8 mph 0.03 in Rain Rain
3:07 PM 53.6 °F 51.8 °F 94% 29.97 in 5.0 mi North 16.1 mph 21.9 mph 0.04 in Rain Light Rain
3:30 PM 53.6 °F 51.8 °F 94% 29.95 in 10.0 mi North 17.3 mph 21.9 mph 0.04 in   Mostly Cloudy
3:53 PM 54.0 °F 51.1 °F 90% 30.01 in 5.0 mi North 10.4 mph 19.6 mph 0.06 in Rain Rain
4:13 PM 53.6 °F 50.0 °F 88% 29.98 in 3.0 mi NNE 13.8 mph 19.6 mph 0.07 in Rain Rain
4:53 PM 53.1 °F 51.1 °F 93% 29.96 in 10.0 mi NNE 13.8 mph - 0.16 in Rain Light Rain
5:28 PM 53.6 °F 48.2 °F 82% 29.96 in 10.0 mi NE 20.7 mph 25.3 mph 0.00 in   Overcast
5:53 PM 53.1 °F 48.9 °F 86% 29.98 in 10.0 mi NNE 12.7 mph 19.6 mph 0.00 in Rain , Thunderstorm Light Rain
6:00 PM 53.6 °F 50.0 °F 88% 29.98 in 9.0 mi North 10.4 mph - 0.00 in Rain , Thunderstorm Light Rain
6:16 PM 53.6 °F 50.0 °F 88% 29.97 in 10.0 mi NNE 13.8 mph - 0.00 in Rain Light Rain
6:26 PM 53.6 °F 48.2 °F 82% 29.98 in 10.0 mi North 15.0 mph - 0.00 in Thunderstorm Thunderstorm
6:53 PM 51.1 °F 48.9 °F 92% 29.98 in 2.0 mi North 13.8 mph 24.2 mph 0.15 in Rain , Thunderstorm Thunderstorms and Rain
7:03 PM 51.8 °F 48.2 °F 88% 29.97 in 7.0 mi NNE 11.5 mph 20.7 mph 0.00 in Rain , Thunderstorm Light Rain
7:10 PM 51.8 °F 48.2 °F 88% 29.97 in 10.0 mi NNE 12.7 mph 18.4 mph 0.00 in   Overcast
7:46 PM 51.8 °F 48.2 °F 88% 29.97 in 10.0 mi North 15.0 mph 21.9 mph 0.00 in   Overcast
7:53 PM 51.1 °F 48.0 °F 89% 29.96 in 10.0 mi North 13.8 mph 23.0 mph 0.00 in   Overcast
8:33 PM 50.0 °F 48.2 °F 94% 29.96 in 10.0 mi NNE 15.0 mph 23.0 mph N/A Rain , Thunderstorm Light Thunderstorms and Rain
8:53 PM 50.0 °F 48.0 °F 93% 29.98 in 7.0 mi North 18.4 mph 24.2 mph 0.07 in Rain , Thunderstorm Light Rain
9:07 PM 50.0 °F 48.2 °F 94% 30.00 in 3.0 mi NNW 12.7 mph - 0.08 in Rain , Thunderstorm Heavy Thunderstorms and Rain
9:12 PM 50.0 °F 48.2 °F 94% 29.99 in 2.5 mi North 13.8 mph - 0.14 in Rain , Thunderstorm Heavy Thunderstorms and Rain
9:16 PM 50.0 °F 48.2 °F 94% 29.98 in 1.8 mi North 20.7 mph 29.9 mph 0.21 in Rain , Thunderstorm Heavy Thunderstorms and Rain
9:26 PM 48.2 °F 46.4 °F 93% 30.00 in 2.0 mi North 12.7 mph 28.8 mph 0.38 in Rain , Thunderstorm Heavy Thunderstorms and Rain
9:36 PM 48.2 °F 46.4 °F 93% 29.99 in 4.0 mi North 17.3 mph - 0.43 in Rain Light Rain
9:44 PM 48.2 °F 46.4 °F 93% 29.99 in 10.0 mi NNE 12.7 mph - 0.43 in Rain Light Rain
9:53 PM 48.0 °F 45.0 °F 89% 29.99 in 9.0 mi NNE 13.8 mph 21.9 mph 0.43 in Rain Light Rain
10:07 PM 48.2 °F 46.4 °F 93% 30.05 in 10.0 mi NNW 13.8 mph - 0.02 in Rain Light Rain
10:23 PM 48.2 °F 46.4 °F 93% 30.01 in 7.0 mi NNE 10.4 mph 19.6 mph 0.04 in Rain Rain
11:15 PM 48.2 °F 46.4 °F 93% 30.08 in 5.0 mi WNW 18.4 mph 28.8 mph N/A Rain , Thunderstorm Thunderstorms and Rain
11:19 PM 48.2 °F 46.4 °F 93% 30.01 in 1.8 mi NNE 9.2 mph 28.8 mph 0.13 in Rain , Thunderstorm Heavy Thunderstorms and Rain
11:29 PM 48.2 °F 46.4 °F 93% 30.02 in 3.0 mi NNW 11.5 mph - 0.29 in Rain , Thunderstorm Light Rain
11:38 PM 48.2 °F 46.4 °F 93% 30.07 in 7.0 mi West 15.0 mph - 0.31 in Rain Rain
11:50 PM 48.2 °F 46.4 °F 93% 30.11 in 6.0 mi West 17.3 mph 21.9 mph 0.34 in Rain , Thunderstorm Rain
11:53 PM 48.9 °F 46.0 °F 90% 30.10 in 5.0 mi West 13.8 mph 23.0 mph 0.35 in Rain , Thunderstorm Rain
11:58 PM 48.2 °F 46.4 °F 93% 30.05 in 2.5 mi NNW 11.5 mph 23.0 mph 0.07 in Rain , Thunderstorm Heavy Rain